Tracking 19242 objects as of 17-Aug-2018
HD Live streaming from Space Station
objects crossing your sky now

GALS 2

Track GALS 2 now!
GALS 2 is classified as:


NORAD ID: 23717
Int'l Code: 1995-063A
Perigee: 35,862.5 km
Apogee: 35,941.4 km
Inclination: 13.3 °
Period: 1,441.6 minutes
Semi major axis: 42272 km
RCS: 8.9125 m2 (large)
Launch date: November 17, 1995
Source: Commonwealth of Independent States (former USSR) (CIS)
Launch site: TYURATAM MISSILE AND SPACE COMPLEX (TTMTR)
aabbcc
Your satellite tracking list
Your tracking list is empty




NASA's NSSDC Master Catalog

Two Line Element Set (TLE):
1 23717U 95063A   18228.56904477  .00000059  00000-0  00000+0 0  9999
2 23717  13.3445  25.2078 0009338 264.3361 267.0679  0.99887085 83084
Source of the keplerian elements: AFSPC